A/2024 W2

Japanese version
Home page
Updated on January 2, 2025

---------------------------------------------------------------------

* Profile

Discovery Date November 26, 2024
Magnitude 21.58 mag
Discoverer Mt. Lemmon Survey

* Orbital Elements

Epoch 2025 Feb. 14.0 TT = JDT 2460720.5                                         
T 2025 Feb. 27.65908 TT                                 Veres                   
q   3.7197245            (2000.0)            P               Q                  
z  -0.0000933      Peri.  168.05027     +0.37819751     +0.48424505             
 +/-0.0000000      Node   241.94841     +0.75855347     +0.32641377             
e   1.0003471      Incl.  116.62076     +0.53062537     -0.81176399             
H   15.6                                                                        
From 31 observations 2024 Nov. 26-Dec. 28, mean residual 0".5.                  

* Magnitudes Graph

        H = 15.6  G = 0.15

---------------------------------------------------------------------

The orbital elements are published on M.P.E.C. 2024-Y249.
The magnitudes graphs are made with Comet for Windows.

---------------------------------------------------------------------

Copyright(C) Seiichi Yoshida (comet@aerith.net). All rights reserved.